Weather History for KAIZ - October, 2012

Change the Weather History Date:

Thursday, October 4, 2012

  Actual Average Record
Temperature  
Mean Temperature 64 °F -  
Max Temperature 77 °F 70 °F - (-1)
Min Temperature 51 °F 47 °F - (-1)
Degree Days  
Heating Degree Days 1    
Growing Degree Days 14 (Base 50)    
Moisture  
Dew Point 51 °F    
Average Humidity 68    
Maximum Humidity 88    
Minimum Humidity 47    
Precipitation  
Precipitation 0.00 in - - ()
Sea Level Pressure  
Sea Level Pressure 30.15 in    
Wind  
Wind Speed 6 mph (SW)    
Max Wind Speed 15 mph    
Max Gust Speed 21 mph    
Visibility 10 miles    
Events      
Averages and records for this station are not official NWS values.
T = Trace of Precipitation, MM = Missing Value Source: NWS Daily Summary

Daily Weather History Graph

Daily Weather History Graph

Search for Another Location

Airport or City:

Trip Planner

Search our weather history database for the weather conditions in past years. The results will help you decide how hot, cold, wet, or windy it might be!

Date:

Astronomy

Oct. 04, 2012 Rise Set
Actual Time 7:09 AM CDT 6:47 PM CDT
Civil Twilight 6:42 AM CDT 7:14 PM CDT
Nautical Twilight 6:12 AM CDT 7:44 PM CDT
Astronomical Twilight 5:41 AM CDT 8:15 PM CDT
Moon 9:28 PM CDT (10/4) 11:22 AM CDT (10/4)
Length of Visible Light 12h 31m
Length of Day
11h 38m
Waning Gibbous, 82% of the Moon is Illuminated
Oct 4
Waning Gibbous
Oct 8
Last Quarter
Oct 15
New
Oct 21
First Quarter
Oct 29
Full

Hourly Weather History & Observations

Time (CDT) Temp. Dew Point Humidity Pressure Visibility Wind Dir Wind Speed Gust Speed Precip Events Conditions
12:15 AM 59.0 °F 51.8 °F 77% 30.07 in 10.0 mi South 4.6 mph - N/A   Clear
12:35 AM 59.0 °F 51.8 °F 77% 30.07 in 10.0 mi SSE 5.8 mph - N/A   Clear
12:55 AM 57.2 °F 51.8 °F 82% 30.07 in 10.0 mi SSE 6.9 mph - N/A   Clear
1:15 AM 57.2 °F 51.8 °F 82% 30.07 in 10.0 mi SSE 5.8 mph - N/A   Clear
1:35 AM 57.2 °F 51.8 °F 82% 30.08 in 10.0 mi South 5.8 mph - N/A   Clear
1:55 AM 57.2 °F 51.8 °F 82% 30.09 in 10.0 mi SSE 6.9 mph - N/A   Mostly Cloudy
2:15 AM 57.2 °F 53.6 °F 88% 30.10 in 10.0 mi SSE 4.6 mph - N/A   Partly Cloudy
2:35 AM 57.2 °F 53.6 °F 88% 30.10 in 10.0 mi SSE 3.5 mph - N/A   Clear
2:55 AM 57.2 °F 53.6 °F 88% 30.10 in 10.0 mi South 4.6 mph - N/A   Clear
3:15 AM 57.2 °F 51.8 °F 82% 30.10 in 10.0 mi SSE 4.6 mph - N/A   Clear
3:35 AM 57.2 °F 53.6 °F 88% 30.10 in 10.0 mi South 4.6 mph - N/A   Clear
3:55 AM 57.2 °F 51.8 °F 82% 30.10 in 10.0 mi SSE 4.6 mph - N/A   Clear
4:15 AM 57.2 °F 51.8 °F 82% 30.10 in 10.0 mi South 4.6 mph - N/A   Clear
4:35 AM 57.2 °F 51.8 °F 82% 30.10 in 10.0 mi South 3.5 mph - N/A   Clear
4:55 AM 57.2 °F 51.8 °F 82% 30.11 in 10.0 mi SSE 4.6 mph - N/A   Clear
5:15 AM 57.2 °F 51.8 °F 82% 30.12 in 10.0 mi SSE 3.5 mph - N/A   Clear
5:35 AM 55.4 °F 51.8 °F 88% 30.12 in 10.0 mi SSE 4.6 mph - N/A   Clear
5:55 AM 55.4 °F 51.8 °F 88% 30.13 in 10.0 mi SSE 4.6 mph - N/A   Clear
6:15 AM 55.4 °F 51.8 °F 88% 30.13 in 10.0 mi SSE 4.6 mph - N/A   Clear
6:35 AM 55.4 °F 51.8 °F 88% 30.13 in 10.0 mi South 3.5 mph - N/A   Clear
6:55 AM 55.4 °F 51.8 °F 88% 30.14 in 10.0 mi SSE 3.5 mph - N/A   Clear
7:15 AM 55.4 °F 51.8 °F 88% 30.14 in 10.0 mi South 4.6 mph - N/A   Clear
7:35 AM 57.2 °F 51.8 °F 82% 30.15 in 10.0 mi South 4.6 mph - N/A   Clear
7:55 AM 57.2 °F 53.6 °F 88% 30.16 in 10.0 mi South 4.6 mph - N/A   Mostly Cloudy
8:15 AM 57.2 °F 53.6 °F 88% 30.16 in 10.0 mi SSE 4.6 mph - N/A   Scattered Clouds
8:35 AM 59.0 °F 53.6 °F 82% 30.16 in 10.0 mi South 4.6 mph - N/A   Clear
8:55 AM 60.8 °F 53.6 °F 77% 30.17 in 10.0 mi South 5.8 mph - N/A   Partly Cloudy
9:15 AM 62.6 °F 55.4 °F 77% 30.17 in 10.0 mi South 5.8 mph - N/A   Partly Cloudy
9:35 AM 66.2 °F 55.4 °F 68% 30.17 in 10.0 mi South 5.8 mph - N/A   Scattered Clouds
9:55 AM 69.8 °F 55.4 °F 60% 30.17 in 10.0 mi SSW 10.4 mph - N/A   Mostly Cloudy
10:15 AM 69.8 °F 55.4 °F 60% 30.17 in 10.0 mi SW 8.1 mph - N/A   Overcast
10:35 AM 71.6 °F 55.4 °F 57% 30.17 in 10.0 mi WSW 4.6 mph - N/A   Overcast
10:55 AM 71.6 °F 55.4 °F 57% 30.18 in 10.0 mi West 10.4 mph 17.3 mph N/A   Overcast
11:15 AM 73.4 °F 55.4 °F 53% 30.18 in 10.0 mi West 12.7 mph - N/A   Overcast
11:35 AM 73.4 °F 55.4 °F 53% 30.17 in 10.0 mi SW 13.8 mph 19.6 mph N/A   Mostly Cloudy
11:55 AM 73.4 °F 55.4 °F 53% 30.17 in 10.0 mi WSW 9.2 mph - N/A   Mostly Cloudy
12:15 PM 75.2 °F 55.4 °F 50% 30.16 in 10.0 mi SW 15.0 mph 20.7 mph N/A   Overcast
12:35 PM 75.2 °F 55.4 °F 50% 30.15 in 10.0 mi SW 12.7 mph 18.4 mph N/A   Scattered Clouds
12:55 PM 75.2 °F 55.4 °F 50% 30.15 in 10.0 mi SW 12.7 mph 16.1 mph N/A   Mostly Cloudy
1:35 PM 77.0 °F 55.4 °F 47% 30.15 in 10.0 mi West 12.7 mph - N/A   Overcast
1:55 PM 75.2 °F 53.6 °F 47% 30.15 in 10.0 mi WSW 10.4 mph 17.3 mph N/A   Overcast
2:15 PM 75.2 °F 55.4 °F 50% 30.15 in 10.0 mi WSW 9.2 mph 16.1 mph N/A   Overcast
2:35 PM 75.2 °F 55.4 °F 50% 30.14 in 10.0 mi WNW 5.8 mph - N/A   Overcast
2:55 PM 75.2 °F 55.4 °F 50% 30.14 in 10.0 mi WSW 8.1 mph - N/A   Overcast
3:15 PM 73.4 °F 55.4 °F 53% 30.14 in 10.0 mi NW 6.9 mph - N/A   Overcast
3:35 PM 73.4 °F 55.4 °F 53% 30.14 in 10.0 mi NW 3.5 mph - N/A   Overcast
3:55 PM 71.6 °F 55.4 °F 57% 30.15 in 10.0 mi NW 4.6 mph - N/A   Overcast
4:15 PM 71.6 °F 55.4 °F 57% 30.14 in 10.0 mi North 4.6 mph - N/A   Overcast
4:35 PM 71.6 °F 55.4 °F 57% 30.14 in 10.0 mi NNW 8.1 mph - N/A   Overcast
4:55 PM 69.8 °F 53.6 °F 56% 30.15 in 10.0 mi NNW 8.1 mph - N/A   Mostly Cloudy
5:15 PM 69.8 °F 51.8 °F 53% 30.16 in 10.0 mi North 9.2 mph - N/A   Mostly Cloudy
5:35 PM 68.0 °F 51.8 °F 56% 30.16 in 10.0 mi North 8.1 mph - N/A   Scattered Clouds
5:55 PM 66.2 °F 48.2 °F 52% 30.17 in 10.0 mi North 6.9 mph - N/A   Clear
6:15 PM 64.4 °F 48.2 °F 56% 30.17 in 10.0 mi North 4.6 mph - N/A   Mostly Cloudy
6:35 PM 64.4 °F 48.2 °F 56% 30.17 in 10.0 mi North 3.5 mph - N/A   Overcast
6:55 PM 64.4 °F 48.2 °F 56% 30.17 in 10.0 mi NNW 3.5 mph - N/A   Overcast
7:15 PM 62.6 °F 46.4 °F 55% 30.18 in 10.0 mi North 6.9 mph - N/A   Overcast
7:35 PM 62.6 °F 44.6 °F 52% 30.18 in 10.0 mi North 5.8 mph - N/A   Overcast
7:55 PM 60.8 °F 44.6 °F 55% 30.19 in 10.0 mi North 8.1 mph - N/A   Overcast
8:15 PM 60.8 °F 44.6 °F 55% 30.21 in 10.0 mi North 6.9 mph 16.1 mph N/A   Overcast
8:35 PM 59.0 °F 44.6 °F 59% 30.21 in 10.0 mi NNE 6.9 mph - N/A   Overcast
8:55 PM 57.2 °F 42.8 °F 59% 30.22 in 10.0 mi North 4.6 mph - N/A   Overcast
9:15 PM 57.2 °F 42.8 °F 59% 30.22 in 10.0 mi North 4.6 mph - N/A   Overcast
9:35 PM 55.4 °F 42.8 °F 63% 30.22 in 10.0 mi North 5.8 mph - N/A   Overcast
9:55 PM 55.4 °F 42.8 °F 63% 30.21 in 10.0 mi North 4.6 mph - N/A   Overcast
10:15 PM 53.6 °F 42.8 °F 67% 30.22 in 10.0 mi North 8.1 mph - N/A   Overcast
10:35 PM 53.6 °F 42.8 °F 67% 30.22 in 10.0 mi North 5.8 mph - N/A   Mostly Cloudy
10:55 PM 53.6 °F 42.8 °F 67% 30.22 in 10.0 mi Calm Calm - N/A   Overcast
11:15 PM 53.6 °F 42.8 °F 67% 30.23 in 10.0 mi North 5.8 mph - N/A   Overcast
11:35 PM 51.8 °F 42.8 °F 71% 30.22 in 10.0 mi NNE 3.5 mph - N/A   Mostly Cloudy
11:55 PM 51.8 °F 42.8 °F 71% 30.22 in 10.0 mi North 4.6 mph - N/A   Partly Cloudy